AAL2768 KORD-KSEA

Flight info

Callsign AAL2768
Flight time N/A
Altitude 36000
Route MYKIE MONNY IANNA FSD DPR LWT MLP GLASR3
Aircraft B38M/M-SDE1FGHILORVWXY/HB1

Departure

Time N/A
Airport Chicago O'Hare International Airport (KORD)

Arrival

Time 2026-05-05 06:08
Airport Seattle–Tacoma International Airport (KSEA)
Time Latitude Longitude Altitude Speed Heading
2026-05-05 05:07 47.34586 -113.42371 36025 ft 424 kts 282°
2026-05-05 05:07 47.35101 -113.51035 35999 ft 424 kts 282°
2026-05-05 05:08 47.35605 -113.59639 36018 ft 425 kts 282°
2026-05-05 05:08 47.36106 -113.68296 36047 ft 425 kts 282°
2026-05-05 05:09 47.36601 -113.76983 36007 ft 424 kts 282°
2026-05-05 05:09 47.37091 -113.85674 36005 ft 426 kts 282°
2026-05-05 05:10 47.37575 -113.94389 36001 ft 426 kts 282°
2026-05-05 05:10 47.38052 -114.03088 36020 ft 426 kts 282°
2026-05-05 05:11 47.38521 -114.11774 36008 ft 428 kts 282°
2026-05-05 05:11 47.38988 -114.20560 35997 ft 429 kts 282°
2026-05-05 05:12 47.39449 -114.29335 36002 ft 429 kts 282°
2026-05-05 05:12 47.39903 -114.38094 36008 ft 429 kts 282°
2026-05-05 05:13 47.40350 -114.46893 35987 ft 430 kts 282°
2026-05-05 05:13 47.40789 -114.55647 35997 ft 431 kts 282°
2026-05-05 05:14 47.41224 -114.64465 36002 ft 431 kts 282°
2026-05-05 05:14 47.41653 -114.73291 35973 ft 431 kts 282°
2026-05-05 05:15 47.42077 -114.82140 35980 ft 433 kts 282°
2026-05-05 05:15 47.42493 -114.91000 35974 ft 432 kts 282°
2026-05-05 05:16 47.42903 -114.99868 35973 ft 433 kts 282°
2026-05-05 05:16 47.43309 -115.08748 35976 ft 433 kts 282°
2026-05-05 05:17 47.43710 -115.17631 35976 ft 433 kts 283°
2026-05-05 05:17 47.44102 -115.26472 35997 ft 435 kts 283°
2026-05-05 05:18 47.44489 -115.35390 36020 ft 436 kts 282°
2026-05-05 05:18 47.44872 -115.44329 35991 ft 435 kts 283°
2026-05-05 05:19 47.45247 -115.53261 36026 ft 436 kts 283°
2026-05-05 05:19 47.45617 -115.62204 36036 ft 436 kts 283°
2026-05-05 05:20 47.46150 -115.71089 36037 ft 433 kts 285°
2026-05-05 05:20 47.46701 -115.79939 36020 ft 432 kts 285°
2026-05-05 05:21 47.47151 -115.87296 36029 ft 432 kts 285°
2026-05-05 05:21 47.47689 -115.96163 36002 ft 433 kts 285°
2026-05-05 05:22 47.48307 -116.06494 35996 ft 435 kts 285°
2026-05-05 05:22 47.48743 -116.13901 36000 ft 434 kts 284°
2026-05-05 05:23 47.49261 -116.22779 35985 ft 434 kts 285°
2026-05-05 05:23 47.49772 -116.31680 35974 ft 434 kts 285°
2026-05-05 05:24 47.50279 -116.40619 35952 ft 437 kts 285°
2026-05-05 05:24 47.50779 -116.49576 35955 ft 437 kts 284°
2026-05-05 05:25 47.51273 -116.58539 35932 ft 437 kts 284°
2026-05-05 05:25 47.51761 -116.67532 35937 ft 439 kts 284°
2026-05-05 05:26 47.52243 -116.76531 35926 ft 439 kts 284°
2026-05-05 05:26 47.52719 -116.85563 35912 ft 441 kts 284°
2026-05-05 05:27 47.53187 -116.94558 35911 ft 441 kts 284°
2026-05-05 05:27 47.53880 -117.08167 35903 ft 443 kts 284°
2026-05-05 05:28 47.54334 -117.17268 35894 ft 443 kts 284°
2026-05-05 05:28 47.54782 -117.26371 35892 ft 444 kts 284°
2026-05-05 05:29 47.55222 -117.35487 35861 ft 446 kts 283°
2026-05-05 05:29 47.55658 -117.44642 35913 ft 445 kts 284°
2026-05-05 05:30 47.56087 -117.53761 35884 ft 444 kts 284°
2026-05-05 05:30 47.56557 -117.62834 35882 ft 440 kts 289°
2026-05-05 05:31 47.57481 -117.71768 35883 ft 439 kts 289°
2026-05-05 05:31 47.58344 -117.80719 35890 ft 440 kts 288°
2026-05-05 05:32 47.59193 -117.89701 35892 ft 439 kts 288°
2026-05-05 05:32 47.60035 -117.98693 35885 ft 439 kts 288°
2026-05-05 05:33 47.60869 -118.07677 35867 ft 441 kts 288°
2026-05-05 05:33 47.61693 -118.16629 35874 ft 441 kts 288°
2026-05-05 05:34 47.62515 -118.25640 35881 ft 441 kts 288°
2026-05-05 05:34 47.63330 -118.34662 35886 ft 441 kts 288°
2026-05-05 05:35 47.64140 -118.43695 35873 ft 442 kts 288°
2026-05-05 05:35 47.64941 -118.52732 35860 ft 442 kts 288°
2026-05-05 05:36 47.65737 -118.61770 35865 ft 442 kts 287°
2026-05-05 05:36 47.66528 -118.70850 35853 ft 444 kts 287°
2026-05-05 05:37 47.67313 -118.79942 35862 ft 444 kts 287°
2026-05-05 05:37 47.68091 -118.89036 35859 ft 445 kts 287°
2026-05-05 05:38 47.68857 -118.98091 35859 ft 445 kts 287°
2026-05-05 05:38 47.69622 -119.07206 35860 ft 445 kts 287°
2026-05-05 05:39 47.70379 -119.16321 35862 ft 445 kts 287°
2026-05-05 05:39 47.71130 -119.25446 35854 ft 445 kts 287°
2026-05-05 05:40 47.71875 -119.34580 35852 ft 446 kts 287°
2026-05-05 05:40 47.72614 -119.43714 35840 ft 445 kts 287°
2026-05-05 05:41 47.73345 -119.52865 35843 ft 446 kts 286°
2026-05-05 05:41 47.74072 -119.62002 35361 ft 444 kts 287°
2026-05-05 05:42 47.74435 -119.66592 34436 ft 449 kts 286°
2026-05-05 05:42 47.74795 -119.71174 33590 ft 453 kts 285°
2026-05-05 05:42 47.75159 -119.75828 32914 ft 452 kts 285°
2026-05-05 05:42 47.75517 -119.80440 32437 ft 446 kts 285°
2026-05-05 05:43 47.75869 -119.84994 31988 ft 440 kts 285°
2026-05-05 05:43 47.76217 -119.89502 31464 ft 437 kts 285°
2026-05-05 05:43 47.76559 -119.93974 30880 ft 434 kts 285°
2026-05-05 05:43 47.76897 -119.98423 30355 ft 431 kts 285°
2026-05-05 05:44 47.77232 -120.02845 29848 ft 429 kts 285°
2026-05-05 05:44 47.77564 -120.07240 29279 ft 428 kts 285°
2026-05-05 05:44 47.77893 -120.11619 28736 ft 425 kts 285°
2026-05-05 05:44 47.78218 -120.15974 28163 ft 422 kts 284°
2026-05-05 05:45 47.78537 -120.20291 27690 ft 418 kts 284°
2026-05-05 05:45 47.78849 -120.24520 27186 ft 415 kts 284°
2026-05-05 05:45 47.79162 -120.28767 26702 ft 412 kts 283°
2026-05-05 05:45 47.79470 -120.32989 26193 ft 409 kts 283°
2026-05-05 05:46 47.79775 -120.37183 25687 ft 406 kts 283°
2026-05-05 05:46 47.80077 -120.41351 25202 ft 403 kts 283°
2026-05-05 05:46 47.80373 -120.45481 24696 ft 401 kts 282°
2026-05-05 05:46 47.80667 -120.49590 24211 ft 398 kts 282°
2026-05-05 05:47 47.80958 -120.53663 23743 ft 395 kts 282°
2026-05-05 05:47 47.81245 -120.57716 23275 ft 393 kts 282°
2026-05-05 05:47 47.81529 -120.61750 22812 ft 390 kts 281°
2026-05-05 05:47 47.81810 -120.65750 22379 ft 387 kts 281°
2026-05-05 05:48 47.82088 -120.69726 21934 ft 385 kts 281°
2026-05-05 05:48 47.82362 -120.73679 21481 ft 382 kts 281°
2026-05-05 05:48 47.82634 -120.77607 21048 ft 380 kts 281°
2026-05-05 05:48 47.82902 -120.81510 20580 ft 378 kts 281°
2026-05-05 05:49 47.83167 -120.85392 20111 ft 376 kts 280°
2026-05-05 05:49 47.83430 -120.89250 19732 ft 373 kts 280°
2026-05-05 05:49 47.83685 -120.93023 19325 ft 371 kts 280°
2026-05-05 05:49 47.83941 -120.96831 18932 ft 369 kts 280°
2026-05-05 05:50 47.84196 -121.00617 18527 ft 366 kts 279°
2026-05-05 05:50 47.84447 -121.04377 18126 ft 364 kts 279°
2026-05-05 05:50 47.84694 -121.08126 17720 ft 362 kts 279°
2026-05-05 05:50 47.84939 -121.11831 17336 ft 359 kts 279°
2026-05-05 05:51 47.85181 -121.15514 16952 ft 356 kts 279°
2026-05-05 05:51 47.85420 -121.19167 16554 ft 353 kts 278°
2026-05-05 05:51 47.85657 -121.22806 16123 ft 352 kts 278°
2026-05-05 05:51 47.85891 -121.26415 15750 ft 348 kts 278°
2026-05-05 05:52 47.86119 -121.29986 15395 ft 345 kts 278°
2026-05-05 05:52 47.86346 -121.33505 15022 ft 345 kts 278°
2026-05-05 05:52 47.86571 -121.37041 14642 ft 341 kts 278°
2026-05-05 05:52 47.86794 -121.40550 14307 ft 339 kts 278°
2026-05-05 05:53 47.87015 -121.44029 13937 ft 336 kts 277°
2026-05-05 05:53 47.87232 -121.47481 13566 ft 334 kts 277°
2026-05-05 05:53 47.87447 -121.50913 13187 ft 331 kts 277°
2026-05-05 05:53 47.87659 -121.54324 12852 ft 328 kts 277°
2026-05-05 05:54 47.87867 -121.57701 12525 ft 325 kts 277°
2026-05-05 05:54 47.88071 -121.60998 12393 ft 315 kts 276°
2026-05-05 05:54 47.88268 -121.64206 12261 ft 307 kts 276°
2026-05-05 05:54 47.88441 -121.67022 12123 ft 300 kts 276°
2026-05-05 05:55 47.88630 -121.70118 12030 ft 301 kts 276°
2026-05-05 05:55 47.88816 -121.73202 11815 ft 302 kts 276°
2026-05-05 05:55 47.89003 -121.76307 11584 ft 300 kts 276°
2026-05-05 05:55 47.89189 -121.79404 11371 ft 299 kts 276°
2026-05-05 05:56 47.89374 -121.82492 11161 ft 298 kts 276°
2026-05-05 05:56 47.89557 -121.85569 10931 ft 297 kts 276°
2026-05-05 05:56 47.89737 -121.88621 10734 ft 296 kts 276°
2026-05-05 05:56 47.89913 -121.91595 10533 ft 295 kts 276°
2026-05-05 05:57 47.90091 -121.94631 10321 ft 292 kts 276°
2026-05-05 05:57 47.90266 -121.97622 10113 ft 287 kts 276°
2026-05-05 05:57 47.90436 -122.00547 9908 ft 281 kts 276°
2026-05-05 05:57 47.90602 -122.03417 9713 ft 277 kts 276°
2026-05-05 05:58 47.90767 -122.06280 9535 ft 278 kts 276°
2026-05-05 05:58 47.90932 -122.09156 9339 ft 277 kts 276°
2026-05-05 05:58 47.91094 -122.11983 9142 ft 276 kts 276°
2026-05-05 05:58 47.91256 -122.14834 8948 ft 275 kts 276°
2026-05-05 05:59 47.91416 -122.17672 8757 ft 274 kts 276°
2026-05-05 05:59 47.91577 -122.20501 8555 ft 273 kts 275°
2026-05-05 05:59 47.91663 -122.23320 8351 ft 273 kts 264°
2026-05-05 05:59 47.91064 -122.25977 8112 ft 273 kts 238°
2026-05-05 06:00 47.89724 -122.27967 7923 ft 274 kts 212°
2026-05-05 06:00 47.87946 -122.28986 7749 ft 276 kts 194°
2026-05-05 06:00 47.86073 -122.29636 7571 ft 277 kts 194°
2026-05-05 06:00 47.84195 -122.30275 7363 ft 275 kts 193°
2026-05-05 06:01 47.82380 -122.30880 7165 ft 269 kts 193°
2026-05-05 06:01 47.80554 -122.31277 7056 ft 261 kts 185°
2026-05-05 06:01 47.78774 -122.31431 6755 ft 260 kts 183°
2026-05-05 06:01 47.76956 -122.31504 6338 ft 261 kts 181°
2026-05-05 06:02 47.75153 -122.31539 5977 ft 255 kts 181°
2026-05-05 06:02 47.73377 -122.31562 5606 ft 250 kts 181°
2026-05-05 06:02 47.71681 -122.31580 5249 ft 245 kts 181°
2026-05-05 06:02 47.70008 -122.31595 4994 ft 235 kts 181°
2026-05-05 06:03 47.68385 -122.31610 4719 ft 236 kts 181°
2026-05-05 06:03 47.66733 -122.31625 4393 ft 237 kts 181°
2026-05-05 06:03 47.65083 -122.31638 4063 ft 236 kts 181°
2026-05-05 06:03 47.63449 -122.31652 3742 ft 230 kts 181°
2026-05-05 06:04 47.61869 -122.31664 3443 ft 224 kts 181°
2026-05-05 06:04 47.60348 -122.31676 3191 ft 215 kts 181°
2026-05-05 06:04 47.58892 -122.31687 2932 ft 202 kts 181°
2026-05-05 06:04 47.57531 -122.31698 2639 ft 190 kts 181°
2026-05-05 06:05 47.56255 -122.31708 2376 ft 176 kts 181°
2026-05-05 06:05 47.55119 -122.31717 2185 ft 158 kts 181°
2026-05-05 06:05 47.54059 -122.31725 1990 ft 145 kts 181°
2026-05-05 06:05 47.53103 -122.31735 1780 ft 141 kts 181°
2026-05-05 06:06 47.52111 -122.31745 1578 ft 141 kts 181°
2026-05-05 06:06 47.51133 -122.31750 1384 ft 140 kts 181°
2026-05-05 06:06 47.50163 -122.31756 1196 ft 138 kts 180°
2026-05-05 06:06 47.49198 -122.31764 1004 ft 139 kts 181°
2026-05-05 06:07 47.48237 -122.31775 820 ft 137 kts 181°
2026-05-05 06:07 47.47302 -122.31778 626 ft 137 kts 181°
2026-05-05 06:07 47.46332 -122.31788 452 ft 136 kts 181°
2026-05-05 06:07 47.45463 -122.31799 403 ft 112 kts 180°
2026-05-05 06:08 47.44905 -122.31800 393 ft 59 kts 180°
2026-05-05 06:08 47.44615 -122.31752 384 ft 25 kts 160°
2026-05-05 06:08 47.44448 -122.31628 377 ft 29 kts 148°
2026-05-05 06:08 47.44288 -122.31487 379 ft 24 kts 143°
2026-05-05 06:09 47.44227 -122.31295 383 ft 20 kts 104°
2026-05-05 06:09 47.44168 -122.31111 386 ft 20 kts 134°
2026-05-05 06:09 47.44045 -122.30998 383 ft 23 kts 151°
2026-05-05 06:09 47.43954 -122.30924 381 ft 20 kts 147°
2026-05-05 06:10 47.43901 -122.30767 382 ft 17 kts 94°
2026-05-05 06:10 47.43944 -122.30641 384 ft 13 kts 13°
2026-05-05 06:10 47.44065 -122.30636 388 ft 13 kts
2026-05-05 06:10 47.44128 -122.30634 389 ft 13 kts
2026-05-05 06:11 47.44222 -122.30634 391 ft 14 kts 359°
2026-05-05 06:11 47.44314 -122.30632 393 ft 13 kts
2026-05-05 06:11 47.44402 -122.30628 395 ft 13 kts 359°
2026-05-05 06:11 47.44491 -122.30631 395 ft 13 kts 359°
2026-05-05 06:12 47.44579 -122.30631 401 ft 13 kts 359°
2026-05-05 06:12 47.44667 -122.30633 403 ft 12 kts 359°
2026-05-05 06:12 47.44751 -122.30630 406 ft 12 kts
2026-05-05 06:12 47.44807 -122.30579 409 ft 9 kts 82°
2026-05-05 06:13 47.44806 -122.30483 410 ft 10 kts 93°
2026-05-05 06:13 47.44774 -122.30394 410 ft 11 kts 131°
2026-05-05 06:13 47.44716 -122.30296 407 ft 14 kts 129°
2026-05-05 06:13 47.44679 -122.30156 408 ft 12 kts 86°
2026-05-05 06:14 47.44685 -122.30065 408 ft 8 kts 115°
2026-05-05 06:14 47.44667 -122.30038 407 ft 1 kts 142°
2026-05-05 06:14 47.44657 -122.30026 406 ft 3 kts 142°
2026-05-05 06:14 47.44648 -122.30016 408 ft 1 kts 143°
2026-05-05 06:15 47.44643 -122.30011 408 ft 1 kts 143°
2026-05-05 06:15 47.44643 -122.30010 406 ft 0 kts 143°